User: anonymous   Login
Location: Byszew
(52.1813°N, 19.2693°E)
Time: 16:59:03
(UTC+00:00)
Language:

Cosmos 1937 Rocket - Orbit

View from above orbital plane
View from above orbital plane
View from above satellite
View from above satellite

Ground track
Ground track

The orbit data is extracted from the following two-line orbital elements,

1 19039U 88029B   21129.48049649  .00000011  00000-0  12288-4 0  9995
2 19039  74.0482 200.0006 0023424  17.4268 342.7684 14.38507874735354
Epoch (UTC): 09 May 2021 11:31:54
Eccentricity: 0.0023424
inclination: 74.0482°
perigee height: 747 km
apogee height: 780 km
right ascension of ascending node: 200.0006°
argument of perigee: 17.4268°
revolutions per day: 14.38507874
mean anomaly at epoch: 342.7684°
orbit number at epoch: 73535

The dashed part of the orbit path shows where the satellite is in the earth's shadow,  

DLR